Time,TemperatureF,DewpointF,PressureIn,WindDirection,WindDirectionDegrees,WindSpeedMPH,WindSpeedGustMPH,Humidity,HourlyPrecipIn,Conditions,Clouds,dailyrainin,SoftwareType,DateUTC
2013-01-19 00:02:00,24.0,20.0,-100.00,NNW,335,4.0,6.0,85,-99.99,,,-99.99,,2013-01-19 08:02:00,
2013-01-19 00:12:00,25.0,21.0,-100.00,North,355,4.0,7.0,84,-99.99,,,-99.99,,2013-01-19 08:12:00,
2013-01-19 00:22:00,25.0,20.0,-100.00,NNW,345,3.0,5.0,83,-99.99,,,-99.99,,2013-01-19 08:22:00,
2013-01-19 00:32:00,24.0,20.0,-100.00,NW,325,2.0,6.0,85,-99.99,,,-99.99,,2013-01-19 08:32:00,
2013-01-19 00:42:00,24.0,20.0,-100.00,NW,325,2.0,6.0,85,-99.99,,,-99.99,,2013-01-19 08:42:00,
2013-01-19 00:52:00,24.0,20.0,-100.00,NNW,345,4.0,6.0,85,-99.99,,,-99.99,,2013-01-19 08:52:00,
2013-01-19 01:02:00,24.0,20.0,-100.00,NNW,345,4.0,6.0,85,-99.99,,,-99.99,,2013-01-19 09:02:00,
2013-01-19 01:12:00,24.0,20.0,-100.00,NNW,340,4.0,6.0,85,-99.99,,,-99.99,,2013-01-19 09:12:00,
2013-01-19 01:22:00,24.0,21.0,-100.00,NNW,335,4.0,6.0,85,-99.99,,,-99.99,,2013-01-19 09:22:00,
2013-01-19 01:32:00,26.0,21.0,-100.00,NNW,345,4.0,5.0,83,-99.99,,,-99.99,,2013-01-19 09:32:00,
2013-01-19 01:42:00,26.0,21.0,-100.00,NNW,345,4.0,5.0,83,-99.99,,,-99.99,,2013-01-19 09:42:00,
2013-01-19 01:52:00,25.0,21.0,-100.00,NW,325,4.0,6.0,83,-99.99,,,-99.99,,2013-01-19 09:52:00,
2013-01-19 02:02:00,25.0,21.0,-100.00,NW,325,4.0,6.0,83,-99.99,,,-99.99,,2013-01-19 10:02:00,
2013-01-19 02:12:00,26.0,21.0,-100.00,NW,320,2.0,6.0,82,-99.99,,,-99.99,,2013-01-19 10:12:00,
2013-01-19 02:22:00,27.0,21.0,-100.00,WNW,300,3.0,6.0,80,-99.99,,,-99.99,,2013-01-19 10:22:00,
2013-01-19 02:32:00,27.0,21.0,-100.00,WNW,300,3.0,6.0,80,-99.99,,,-99.99,,2013-01-19 10:32:00,
2013-01-19 02:42:00,27.0,21.0,-100.00,WNW,300,3.0,6.0,80,-99.99,,,-99.99,,2013-01-19 10:42:00,
2013-01-19 02:52:00,25.0,20.0,-100.00,West,270,2.0,5.0,81,-99.99,,,-99.99,,2013-01-19 10:52:00,
2013-01-19 03:02:00,25.0,20.0,-100.00,West,270,2.0,5.0,81,-99.99,,,-99.99,,2013-01-19 11:02:00,
2013-01-19 03:12:00,25.0,20.0,-100.00,WNW,300,3.0,7.0,82,-99.99,,,-99.99,,2013-01-19 11:12:00,
2013-01-19 04:48:00,26.0,22.0,-100.00,NW,305,4.0,7.0,86,-99.99,,,-99.99,,2013-01-19 12:48:00,
2013-01-19 05:02:00,25.0,21.0,-100.00,WNW,300,4.0,9.0,85,-99.99,,,-99.99,,2013-01-19 13:02:00,
2013-01-19 05:12:00,24.0,20.0,-100.00,NNW,330,4.0,9.0,85,-99.99,,,-99.99,,2013-01-19 13:12:00,
2013-01-19 05:22:00,24.0,20.0,-100.00,NNW,335,4.0,7.0,86,-99.99,,,-99.99,,2013-01-19 13:22:00,
2013-01-19 05:33:00,23.0,20.0,-100.00,NNW,330,4.0,6.0,88,-99.99,,,-99.99,,2013-01-19 13:33:00,
2013-01-19 05:42:00,23.0,20.0,-100.00,NNW,330,4.0,6.0,88,-99.99,,,-99.99,,2013-01-19 13:42:00,
2013-01-19 05:52:00,22.0,20.0,-100.00,WNW,290,2.0,7.0,90,-99.99,,,-99.99,,2013-01-19 13:52:00,
2013-01-19 06:02:00,22.0,20.0,-100.00,WNW,290,2.0,7.0,90,-99.99,,,-99.99,,2013-01-19 14:02:00,
2013-01-19 06:12:00,22.0,19.0,-100.00,NNW,335,4.0,7.0,90,-99.99,,,-99.99,,2013-01-19 14:12:00,
2013-01-19 06:22:00,22.0,20.0,-100.00,NNW,335,3.0,7.0,91,-99.99,,,-99.99,,2013-01-19 14:22:00,
2013-01-19 06:33:00,23.0,21.0,-100.00,NNW,330,3.0,6.0,92,-99.99,,,-99.99,,2013-01-19 14:33:00,
2013-01-19 06:42:00,23.0,21.0,-100.00,NNW,330,3.0,6.0,92,-99.99,,,-99.99,,2013-01-19 14:42:00,
2013-01-19 06:53:00,22.0,20.0,-100.00,NW,320,4.0,6.0,93,-99.99,,,-99.99,,2013-01-19 14:53:00,
2013-01-19 07:02:00,22.0,20.0,-100.00,NW,320,4.0,6.0,93,-99.99,,,-99.99,,2013-01-19 15:02:00,
2013-01-19 07:12:00,23.0,21.0,-100.00,WNW,290,2.0,7.0,94,-99.99,,,-99.99,,2013-01-19 15:12:00,
2013-01-19 07:22:00,23.0,22.0,-100.00,NW,305,2.0,5.0,94,-99.99,,,-99.99,,2013-01-19 15:22:00,
2013-01-19 07:33:00,22.0,21.0,-100.00,North,350,3.0,5.0,95,-99.99,,,-99.99,,2013-01-19 15:33:00,
2013-01-19 07:53:00,22.0,21.0,-100.00,NNW,330,3.0,6.0,96,-99.99,,,-99.99,,2013-01-19 15:53:00,
2013-01-19 08:02:00,22.0,21.0,-100.00,NNW,330,3.0,6.0,96,-99.99,,,-99.99,,2013-01-19 16:02:00,
2013-01-19 08:12:00,23.0,22.0,-100.00,North,0,2.0,7.0,95,-99.99,,,-99.99,,2013-01-19 16:12:00,
2013-01-19 08:23:00,22.0,21.0,-100.00,NW,305,4.0,9.0,95,-99.99,,,-99.99,,2013-01-19 16:23:00,
2013-01-19 08:33:00,23.0,22.0,-100.00,West,270,3.0,7.0,94,-99.99,,,-99.99,,2013-01-19 16:33:00,
2013-01-19 08:53:00,23.0,21.0,-100.00,NW,315,3.0,7.0,91,-99.99,,,-99.99,,2013-01-19 16:53:00,
2013-01-19 09:02:00,23.0,21.0,-100.00,NW,315,3.0,7.0,91,-99.99,,,-99.99,,2013-01-19 17:02:00,
2013-01-19 09:15:00,25.0,22.0,-100.00,NW,305,5.0,12.0,89,-99.99,,,-99.99,,2013-01-19 17:15:00,
2013-01-19 09:26:00,26.0,23.0,-100.00,WNW,285,6.0,11.0,86,-99.99,,,-99.99,,2013-01-19 17:26:00,
2013-01-19 09:34:00,28.0,23.0,-100.00,WNW,300,4.0,12.0,83,-99.99,,,-99.99,,2013-01-19 17:34:00,
2013-01-19 09:53:00,29.0,24.0,-100.00,WNW,285,6.0,12.0,81,-99.99,,,-99.99,,2013-01-19 17:53:00,
2013-01-19 10:13:00,30.0,23.0,-100.00,WNW,290,6.0,13.0,75,-99.99,,,-99.99,,2013-01-19 18:13:00,
2013-01-19 10:25:00,31.0,23.0,-100.00,WNW,290,6.0,13.0,70,-99.99,,,-99.99,,2013-01-19 18:25:00,
2013-01-19 10:34:00,32.0,22.0,-100.00,WNW,290,7.0,13.0,67,-99.99,,,-99.99,,2013-01-19 18:34:00,
2013-01-19 10:44:00,32.0,22.0,-100.00,WNW,290,7.0,13.0,67,-99.99,,,-99.99,,2013-01-19 18:44:00,
2013-01-19 10:54:00,33.0,23.0,-100.00,WNW,295,6.0,12.0,66,-99.99,,,-99.99,,2013-01-19 18:54:00,
2013-01-19 11:04:00,33.0,23.0,-100.00,WNW,295,6.0,12.0,66,-99.99,,,-99.99,,2013-01-19 19:04:00,
2013-01-19 11:17:00,34.0,23.0,-100.00,WNW,300,6.0,14.0,64,-99.99,,,-99.99,,2013-01-19 19:17:00,
2013-01-19 11:26:00,35.0,23.0,-100.00,WNW,290,7.0,14.0,61,-99.99,,,-99.99,,2013-01-19 19:26:00,
2013-01-19 11:44:00,36.0,22.0,-100.00,WNW,295,8.0,16.0,56,-99.99,,,-99.99,,2013-01-19 19:44:00,
2013-01-19 11:54:00,36.0,22.0,-100.00,WNW,295,6.0,14.0,55,-99.99,,,-99.99,,2013-01-19 19:54:00,
2013-01-19 12:24:00,38.0,22.0,-100.00,WNW,300,8.0,17.0,52,-99.99,,,-99.99,,2013-01-19 20:24:00,
2013-01-19 12:35:00,38.0,21.0,-100.00,WNW,295,8.0,15.0,51,-99.99,,,-99.99,,2013-01-19 20:35:00,
2013-01-19 12:44:00,38.0,21.0,-100.00,WNW,295,8.0,15.0,51,-99.99,,,-99.99,,2013-01-19 20:44:00,
2013-01-19 12:54:00,38.0,21.0,-100.00,NW,310,9.0,14.0,50,-99.99,,,-99.99,,2013-01-19 20:54:00,
2013-01-19 13:03:00,38.0,21.0,-100.00,NW,310,9.0,14.0,50,-99.99,,,-99.99,,2013-01-19 21:03:00,
2013-01-19 13:13:00,39.0,21.0,-100.00,NW,305,10.0,16.0,49,-99.99,,,-99.99,,2013-01-19 21:13:00,
2013-01-19 13:38:00,40.0,21.0,-100.00,WNW,300,7.0,13.0,47,-99.99,,,-99.99,,2013-01-19 21:38:00,
2013-01-19 13:47:00,40.0,21.0,-100.00,WNW,300,7.0,13.0,47,-99.99,,,-99.99,,2013-01-19 21:47:00,
2013-01-19 13:54:00,40.0,22.0,-100.00,WNW,300,7.0,15.0,47,-99.99,,,-99.99,,2013-01-19 21:54:00,
2013-01-19 14:15:00,40.0,22.0,-100.00,NW,305,6.0,15.0,47,-99.99,,,-99.99,,2013-01-19 22:15:00,
2013-01-19 14:24:00,40.0,22.0,-100.00,WNW,295,8.0,17.0,47,-99.99,,,-99.99,,2013-01-19 22:24:00,
2013-01-19 14:34:00,41.0,23.0,-100.00,WNW,300,7.0,16.0,48,-99.99,,,-99.99,,2013-01-19 22:34:00,
2013-01-19 14:54:00,41.0,23.0,-100.00,WNW,290,7.0,16.0,48,-99.99,,,-99.99,,2013-01-19 22:54:00,
2013-01-19 15:14:00,42.0,23.0,-100.00,WNW,300,7.0,14.0,48,-99.99,,,-99.99,,2013-01-19 23:14:00,
2013-01-19 15:24:00,42.0,23.0,-100.00,WNW,300,10.0,14.0,47,-99.99,,,-99.99,,2013-01-19 23:24:00,
2013-01-19 15:33:00,42.0,23.0,-100.00,WNW,295,7.0,15.0,47,-99.99,,,-99.99,,2013-01-19 23:33:00,
2013-01-19 15:57:00,42.0,23.0,-100.00,WNW,295,7.0,15.0,47,-99.99,,,-99.99,,2013-01-19 23:57:00,
2013-01-19 16:14:00,42.0,24.0,-100.00,NNW,330,6.0,13.0,49,-99.99,,,-99.99,,2013-01-20 00:14:00,
2013-01-19 16:24:00,41.0,24.0,-100.00,NW,305,5.0,12.0,50,-99.99,,,-99.99,,2013-01-20 00:24:00,
2013-01-19 16:34:00,41.0,24.0,-100.00,WNW,285,6.0,12.0,51,-99.99,,,-99.99,,2013-01-20 00:34:00,
2013-01-19 16:45:00,41.0,24.0,-100.00,WNW,285,6.0,12.0,51,-99.99,,,-99.99,,2013-01-20 00:45:00,
2013-01-19 16:53:00,40.0,24.0,-100.00,WNW,300,6.0,11.0,52,-99.99,,,-99.99,,2013-01-20 00:53:00,
2013-01-19 17:03:00,40.0,24.0,-100.00,WNW,300,6.0,11.0,52,-99.99,,,-99.99,,2013-01-20 01:03:00,
2013-01-19 17:16:00,39.0,25.0,-100.00,NW,305,4.0,9.0,56,-99.99,,,-99.99,,2013-01-20 01:16:00,
2013-01-19 17:24:00,38.0,23.0,-100.00,WNW,295,4.0,11.0,56,-99.99,,,-99.99,,2013-01-20 01:24:00,
2013-01-19 17:45:00,36.0,23.0,-100.00,WNW,285,4.0,7.0,58,-99.99,,,-99.99,,2013-01-20 01:45:00,
2013-01-19 18:03:00,35.0,23.0,-100.00,NW,305,4.0,9.0,60,-99.99,,,-99.99,,2013-01-20 02:03:00,
2013-01-19 18:13:00,35.0,23.0,-100.00,NNW,330,4.0,9.0,63,-99.99,,,-99.99,,2013-01-20 02:13:00,
2013-01-19 18:24:00,33.0,23.0,-100.00,NW,320,4.0,7.0,66,-99.99,,,-99.99,,2013-01-20 02:24:00,
2013-01-19 18:34:00,32.0,23.0,-100.00,NNW,335,2.0,6.0,69,-99.99,,,-99.99,,2013-01-20 02:34:00,
2013-01-19 18:43:00,32.0,23.0,-100.00,NNW,335,2.0,6.0,69,-99.99,,,-99.99,,2013-01-20 02:43:00,
2013-01-19 18:55:00,31.0,23.0,-100.00,NNW,330,3.0,4.0,74,-99.99,,,-99.99,,2013-01-20 02:55:00,
2013-01-19 19:05:00,31.0,23.0,-100.00,NNW,330,3.0,4.0,74,-99.99,,,-99.99,,2013-01-20 03:05:00,
2013-01-19 19:13:00,30.0,24.0,-100.00,NNW,345,3.0,6.0,78,-99.99,,,-99.99,,2013-01-20 03:13:00,
2013-01-19 19:23:00,29.0,24.0,-100.00,NNW,335,4.0,5.0,82,-99.99,,,-99.99,,2013-01-20 03:23:00,
2013-01-19 19:35:00,29.0,24.0,-100.00,NW,305,3.0,4.0,83,-99.99,,,-99.99,,2013-01-20 03:35:00,
2013-01-19 19:44:00,29.0,24.0,-100.00,NW,305,3.0,4.0,83,-99.99,,,-99.99,,2013-01-20 03:44:00,
2013-01-19 19:53:00,29.0,24.0,-100.00,NW,305,3.0,4.0,83,-99.99,,,-99.99,,2013-01-20 03:53:00,
2013-01-19 20:03:00,29.0,24.0,-100.00,NW,305,3.0,4.0,83,-99.99,,,-99.99,,2013-01-20 04:03:00,
2013-01-19 20:14:00,28.0,23.0,-100.00,NNW,335,1.0,3.0,83,-99.99,,,-99.99,,2013-01-20 04:14:00,
2013-01-19 20:24:00,27.0,23.0,-100.00,NNW,330,3.0,4.0,83,-99.99,,,-99.99,,2013-01-20 04:24:00,
2013-01-19 20:44:00,27.0,23.0,-100.00,NW,325,3.0,6.0,85,-99.99,,,-99.99,,2013-01-20 04:44:00,
2013-01-19 20:53:00,27.0,23.0,-100.00,NNW,345,2.0,4.0,85,-99.99,,,-99.99,,2013-01-20 04:53:00,
2013-01-19 21:02:00,27.0,23.0,-100.00,NNW,345,2.0,4.0,85,-99.99,,,-99.99,,2013-01-20 05:02:00,
2013-01-19 21:12:00,27.0,23.0,-100.00,NW,325,2.0,4.0,85,-99.99,,,-99.99,,2013-01-20 05:12:00,
2013-01-19 21:22:00,26.0,23.0,-100.00,NW,320,2.0,6.0,85,-99.99,,,-99.99,,2013-01-20 05:22:00,
2013-01-19 21:32:00,26.0,22.0,-100.00,NNW,345,2.0,6.0,85,-99.99,,,-99.99,,2013-01-20 05:32:00,
2013-01-19 21:42:00,26.0,22.0,-100.00,NNW,345,2.0,6.0,85,-99.99,,,-99.99,,2013-01-20 05:42:00,
2013-01-19 21:53:00,26.0,22.0,-100.00,NNW,345,3.0,4.0,85,-99.99,,,-99.99,,2013-01-20 05:53:00,
2013-01-19 22:02:00,26.0,22.0,-100.00,NNW,345,3.0,4.0,85,-99.99,,,-99.99,,2013-01-20 06:02:00,
2013-01-19 22:12:00,26.0,22.0,-100.00,NNW,330,3.0,5.0,85,-99.99,,,-99.99,,2013-01-20 06:12:00,
2013-01-19 22:22:00,26.0,22.0,-100.00,NNW,330,4.0,6.0,85,-99.99,,,-99.99,,2013-01-20 06:22:00,
2013-01-19 22:33:00,27.0,22.0,-100.00,NNW,330,4.0,7.0,84,-99.99,,,-99.99,,2013-01-20 06:33:00,
2013-01-19 22:42:00,27.0,22.0,-100.00,NNW,330,4.0,7.0,84,-99.99,,,-99.99,,2013-01-20 06:42:00,
2013-01-19 22:52:00,26.0,22.0,-100.00,NNW,335,4.0,6.0,84,-99.99,,,-99.99,,2013-01-20 06:52:00,
2013-01-19 23:02:00,26.0,22.0,-100.00,NNW,335,4.0,6.0,84,-99.99,,,-99.99,,2013-01-20 07:02:00,
2013-01-19 23:11:00,25.0,21.0,-100.00,NNW,335,3.0,5.0,85,-99.99,,,-99.99,,2013-01-20 07:11:00,
2013-01-19 23:22:00,26.0,22.0,-100.00,NW,305,3.0,5.0,85,-99.99,,,-99.99,,2013-01-20 07:22:00,
2013-01-19 23:32:00,25.0,21.0,-100.00,NW,325,3.0,5.0,84,-99.99,,,-99.99,,2013-01-20 07:32:00,
2013-01-19 23:42:00,25.0,21.0,-100.00,NW,325,3.0,5.0,84,-99.99,,,-99.99,,2013-01-20 07:42:00,
2013-01-19 23:52:00,26.0,21.0,-100.00,NW,305,3.0,5.0,82,-99.99,,,-99.99,,2013-01-20 07:52:00,